Probability
9 9 10 9 8 6 4 3 3 3 3 2 1 0 0 0 0 0 0 0 0 0 0 0 0 0 0 0 0 0 0 0 0 1 1 1 0 0 0 0 0 0 0
8 9 9 9 7 5 4 3 3 3 2 1 0 0 0 0 0 0 0 0 0 0 0 0 0 0 0 0 0 0 0 0 1 2 2 2 1 0 0 0 0 0 0
6 7 8 8 6 4 3 3 2 1 1 0 0 0 0 0 0 0 0 0 0 0 0 0 0 0 0 0 0 0 0 0 1 2 3 2 1 0 0 1 0 0 0
5 5 6 6 5 4 3 3 1 0 0 0 0 0 0 0 0 0 0 0 0 0 0 0 0 0 0 0 0 0 0 0 0 1 2 1 1 0 0 0 0 0 0
3 3 4 5 5 4 3 2 1 0 0 0 0 0 0 0 0 0 0 0 0 0 0 0 0 0 0 0 0 0 0 0 0 0 0 0 0 0 0 0 0 0 0
3 2 3 4 4 3 2 1 0 0 0 0 0 0 0 0 0 0 0 0 0 0 0 0 0 0 0 0 0 0 0 0 0 0 0 0 0 0 0 0 0 0 0
3 2 2 4 4 3 1 0 0 0 0 0 0 0 0 0 0 0 0 0 0 1 0 0 0 0 0 0 0 0 0 0 0 0 0 0 0 1 1 1 0 0 0
2 1 1 3 5 3 1 0 0 0 0 0 0 0 0 0 0 0 0 0 0 0 0 0 0 0 0 0 0 0 0 0 0 0 0 0 1 2 2 1 0 0 0
2 1 1 3 4 3 1 0 0 0 0 0 0 0 0 0 0 0 0 0 0 0 0 0 0 0 0 0 0 0 0 0 0 0 1 1 1 1 1 0 0 0 0
2 1 1 2 3 1 0 0 0 0 0 0 0 0 0 0 0 0 0 0 0 0 0 0 0 0 0 0 0 0 0 0 0 1 2 2 1 0 0 0 0 0 0
3 2 1 2 2 1 0 0 0 0 0 0 0 0 0 0 0 0 0 0 0 0 0 0 0 0 0 0 0 0 0 0 0 1 2 2 1 0 0 0 0 0 0
3 2 1 2 2 1 0 0 0 0 0 0 0 0 0 0 0 0 0 0 0 0 0 0 0 0 0 0 0 0 0 0 0 0 1 1 0 0 0 0 0 0 0
3 2 1 2 2 1 0 0 0 0 0 0 0 0 0 0 0 0 0 0 0 0 0 0 0 0 0 0 0 0 0 0 0 0 0 0 0 0 0 0 0 0 0
3 3 3 3 2 1 0 0 0 0 0 0 0 0 0 0 0 0 0 0 0 0 0 0 0 0 0 0 0 0 0 0 0 0 0 0 0 0 0 0 0 0 0
4 4 4 3 2 1 0 0 0 0 0 0 0 0 0 0 0 0 0 0 0 0 0 0 0 0 0 0 0 0 0 0 0 0 0 0 0 0 0 0 0 0 0
4 4 4 3 2 1 0 0 0 0 0 0 0 0 0 0 0 0 0 0 0 0 0 0 0 0 0 0 0 0 0 0 0 0 0 0 0 0 0 0 0 0 0
3 3 3 2 1 0 0 0 0 0 0 0 0 0 0 0 0 0 0 0 0 0 0 0 0 0 0 0 0 0 0 0 0 0 0 0 0 0 0 0 0 0 0
1 1 1 1 0 0 0 0 0 0 0 0 0 0 0 0 0 0 0 0 0 0 0 0 0 0 0 0 0 0 0 0 0 0 0 0 0 0 0 0 0 0 0
0 0 0 0 0 0 0 0 0 0 0 0 0 0 0 0 0 0 0 0 0 0 0 0 0 0 0 0 0 0 0 0 0 0 0 0 0 0 0 0 0 0 0
0 0 0 0 0 0 0 0 0 0 0 0 0 0 0 0 0 0 0 0 0 0 0 0 0 0 0 0 0 0 0 0 0 0 0 0 0 0 0 0 0 0 0
0 0 0 0 0 0 0 0 0 0 0 0 0 0 0 0 0 0 0 0 0 0 0 0 0 0 0 0 0 0 0 0 0 0 0 0 0 0 0 0 0 0 0
0 0 0 0 0 0 0 0 0 0 0 0 0 0 0 0 0 0 0 0 0 0 0 0 0 0 0 0 0 0 0 0 0 0 0 0 0 0 0 0 0 0 0
0 0 0 0 0 0 0 0 0 0 0 0 0 0 0 0 0 0 0 0 0 0 0 0 0 0 0 0 0 0 0 0 0 0 0 0 0 0 0 0 0 0 0
0 0 0 0 0 0 0 0 0 0 0 0 0 0 0 0 0 0 0 0 0 0 0 0 0 0 0 0 0 0 0 0 0 0 0 0 0 0 0 0 0 0 0
0 0 0 0 0 0 0 0 0 0 0 0 0 0 0 0 0 0 0 0 0 0 0 0 0 0 0 0 0 0 0 0 0 0 0 0 0 0 0 0 0 0 0
0 0 0 0 0 0 0 0 0 0 0 0 0 0 0 0 0 0 0 0 0 0 0 0 0 0 0 0 0 0 0 0 0 0 0 0 0 0 0 0 0 0 0
Wind_Speed
3 3 3 3 3 3 4 4 4 4 5 5 4 4 4 4 4 4 4 7 7 8 8 9 8 8 9 10 10 10 10 10 10 10 10 10 9 9 9 8 9 9 9
3 3 3 3 3 3 3 3 4 4 4 3 4 4 4 4 4 4 3 4 7 7 7 8 8 9 9 9 9 9 9 9 9 9 9 9 9 9 8 8 8 8 9
4 3 3 3 3 3 4 4 4 4 4 3 4 4 3 3 3 3 3 2 3 6 7 7 7 7 7 8 8 8 8 8 8 8 8 8 8 8 8 8 8 8 8
4 4 3 3 3 3 3 3 4 4 3 3 3 2 2 2 3 3 3 2 2 2 4 6 6 7 6 6 6 7 7 7 7 7 7 7 7 8 8 8 8 7 7
3 3 3 3 4 4 3 3 3 3 4 3 3 2 2 2 2 2 2 3 2 2 2 4 6 6 6 6 5 5 6 6 6 6 6 6 6 7 7 7 8 7 6
3 3 3 4 5 4 4 4 4 4 3 3 3 3 2 1 1 1 1 1 2 2 2 2 2 3 5 5 4 4 5 5 5 5 5 5 5 5 5 6 6 7 6
4 3 3 4 5 4 5 6 5 5 4 3 3 2 1 1 1 1 0 1 1 1 1 1 1 1 2 3 4 3 3 3 4 4 4 4 4 4 4 4 5 5 6
4 3 4 4 5 5 6 6 6 4 3 3 3 3 2 2 1 0 0 0 0 0 1 1 1 1 1 1 2 3 2 2 2 3 3 2 2 2 2 3 3 4 5
3 4 5 5 5 5 6 7 7 6 5 4 3 3 3 3 2 1 1 1 1 1 1 1 1 1 1 1 1 2 2 1 1 1 1 1 0 0 1 2 2 3 3
4 4 4 5 6 5 6 6 6 5 6 5 3 2 1 1 3 2 2 1 1 1 2 1 1 1 1 1 1 1 1 1 0 1 0 1 0 0 1 1 1 2 2
4 4 4 5 5 5 6 6 6 6 5 5 4 3 2 2 3 3 3 3 2 2 2 2 2 2 2 2 2 1 0 1 1 2 2 2 2 1 1 1 1 1 2
4 5 5 5 5 5 6 6 6 7 6 6 5 4 4 4 4 3 3 3 3 2 2 2 2 2 2 2 2 1 2 2 3 3 3 3 3 3 3 2 2 2 3
3 5 5 5 5 5 5 5 6 6 7 7 6 5 4 4 3 3 3 3 2 2 2 3 3 3 2 2 2 2 3 4 4 5 5 4 3 4 3 3 3 3 4
4 5 5 5 5 6 6 6 5 6 6 7 7 6 4 4 4 4 3 3 3 3 4 4 2 3 3 3 2 4 4 4 5 6 6 5 4 3 4 4 5 5 5
4 5 5 5 5 6 6 7 5 6 6 6 6 6 5 4 4 4 4 4 4 4 5 5 3 3 3 3 3 4 4 4 5 6 5 5 4 4 4 5 5 6 6
4 4 5 5 5 5 6 6 6 7 7 7 5 7 6 5 4 4 4 5 5 5 5 3 3 3 3 4 5 5 4 5 6 6 6 5 5 5 5 6 6 6 7
4 4 5 5 6 6 6 7 7 7 8 8 7 8 8 7 5 5 5 5 5 5 5 3 3 3 5 5 4 4 4 5 4 6 6 6 6 6 7 7 7 7 7
4 4 5 5 6 6 6 8 8 8 9 9 9 8 8 6 7 6 5 6 6 6 5 5 3 3 5 5 5 5 4 4 4 5 7 8 8 8 7 7 8 8 8
3 4 5 5 6 5 6 7 7 8 9 9 9 9 9 8 8 7 7 6 5 5 4 4 3 3 3 3 4 4 4 4 4 4 6 8 8 8 8 8 8 8 8
3 4 4 5 5 5 5 6 6 7 7 7 8 8 9 9 9 9 7 7 5 5 5 4 4 4 3 3 4 4 4 4 4 3 5 6 6 7 8 8 8 8 8
4 4 4 4 5 5 5 6 6 6 7 7 7 8 8 9 11 9 7 7 7 5 5 5 4 4 4 4 5 4 4 4 4 3 4 4 4 4 5 6 7 8 9
3 4 4 5 5 4 6 8 7 6 7 7 7 7 7 8 10 12 12 11 10 8 7 6 6 6 6 5 5 4 4 4 4 3 4 4 4 4 3 3 5 7 9
3 4 4 4 5 5 7 8 8 6 7 7 7 7 6 6 8 8 9 10 10 11 10 8 8 8 7 6 6 6 6 6 5 3 4 5 4 5 4 4 6 7 8
3 4 4 4 4 5 6 7 7 6 6 7 7 8 7 7 7 7 6 7 8 8 9 8 8 7 6 6 6 6 6 5 3 2 4 5 4 4 4 4 7 8 8
4 4 4 4 5 5 6 6 6 5 5 6 6 7 7 7 8 8 7 7 7 7 7 8 8 7 7 7 6 4 4 4 4 3 3 3 3 3 4 4 5 8 8
4 4 4 4 4 4 5 6 6 4 4 5 5 6 8 8 9 10 8 7 8 7 5 5 6 6 6 6 8 7 6 5 4 4 4 3 2 2 3 3 3 3 5
Wind_Direction
143 136 128 127 125 123 126 118 113 108 102 97 96 100 98 91 88 88 82 63 70 83 90 94 95 97 95 92 88 83 80 81 78 75 71 68 65 64 67 67 67 67 70
146 142 133 131 125 122 120 121 120 112 102 100 99 97 95 92 80 85 91 81 65 69 80 90 95 95 94 92 91 89 84 82 81 77 71 67 64 63 64 66 67 65 66
150 148 141 137 127 125 124 121 118 111 106 106 103 96 90 88 91 81 79 82 84 68 68 77 85 91 95 96 94 93 90 82 82 78 73 68 64 61 61 63 67 64 63
150 149 147 140 138 137 135 135 133 120 118 116 107 95 87 84 79 78 77 75 70 77 75 70 70 73 81 92 96 96 91 86 84 80 76 71 65 63 61 59 59 61 61
147 154 150 145 147 144 139 139 138 134 129 120 107 93 82 84 79 86 86 76 67 67 75 75 72 67 66 74 90 99 94 90 86 82 78 75 68 63 60 56 54 53 56
156 156 153 153 154 151 149 148 140 135 132 127 112 90 71 70 79 85 87 85 80 72 76 87 93 83 71 64 74 91 93 97 90 82 81 79 72 65 61 55 50 45 42
167 162 162 161 166 165 160 154 144 142 139 143 139 121 91 83 92 80 95 111 90 78 87 95 92 99 102 83 65 75 87 96 94 89 86 81 72 66 60 57 49 42 36
176 176 177 173 174 168 163 162 157 151 154 175 172 164 170 183 178 325 34 147 176 123 100 98 111 110 132 126 83 67 71 81 92 95 89 85 73 64 54 55 44 33 30
178 191 189 179 180 177 174 173 174 171 171 183 201 195 189 195 163 181 219 228 227 216 195 164 154 152 159 146 136 91 61 56 80 96 97 84 52 349 35 40 29 20 21
190 192 197 189 183 181 180 180 180 180 179 183 193 220 256 158 185 176 193 216 246 254 242 212 202 196 197 190 145 71 58 44 226 272 234 193 177 296 334 352 354 357 4
196 193 195 192 187 186 187 187 185 185 190 194 190 185 186 188 213 203 204 205 216 242 254 244 224 212 208 210 204 178 209 229 228 246 242 243 250 254 264 290 333 342 343
198 199 198 197 193 191 193 194 192 194 197 198 196 195 196 193 195 203 210 212 223 237 250 255 234 219 215 216 213 220 237 237 234 239 246 252 262 266 260 267 281 300 311
209 209 203 206 203 196 196 198 199 200 202 201 201 201 206 215 202 207 205 206 229 247 230 238 236 228 220 218 211 230 234 244 241 239 245 251 259 274 269 266 273 283 291
212 210 206 207 215 202 197 200 205 208 207 208 209 207 206 205 206 200 199 196 214 232 231 231 228 227 222 222 227 241 226 238 242 240 244 250 258 273 277 273 272 276 283
214 210 205 204 213 211 203 202 208 208 211 214 212 211 213 208 209 208 207 210 213 223 231 223 216 218 227 227 224 233 236 232 241 242 244 246 251 262 270 272 274 276 278
210 208 207 208 208 214 208 208 209 209 212 215 215 213 215 211 211 211 210 222 232 234 238 221 226 217 221 229 225 230 235 235 239 242 240 240 245 248 253 261 265 272 275
206 208 209 212 211 215 213 213 215 210 213 215 215 216 217 213 212 211 211 220 229 229 236 236 232 219 221 230 221 225 230 230 228 234 237 237 242 244 247 251 256 263 270
214 212 212 215 217 217 219 217 218 215 215 216 215 215 217 214 216 213 214 218 222 222 227 230 228 222 226 231 228 227 231 236 235 232 238 243 243 244 245 248 254 261 266
227 218 215 215 217 219 224 221 219 218 218 218 216 215 216 214 216 214 215 218 218 216 220 220 224 225 227 223 230 229 230 233 237 235 237 240 244 244 245 248 254 260 265
236 225 228 225 224 222 225 225 222 219 220 221 221 219 218 217 216 214 213 213 211 209 211 212 214 215 218 214 222 224 227 228 231 233 239 242 244 242 244 248 252 259 264
240 230 232 234 229 225 222 223 226 220 220 222 224 224 223 222 220 215 211 206 204 209 211 213 215 214 213 206 219 219 231 236 234 230 240 235 238 240 240 247 250 253 258
242 229 227 231 230 231 235 232 229 222 222 222 224 227 227 222 220 221 219 216 212 210 210 215 221 218 220 222 223 220 223 228 237 216 234 240 238 244 245 247 255 254 257
246 240 232 231 233 241 240 236 237 228 225 224 223 222 221 221 223 221 217 217 218 220 221 224 226 226 224 220 221 224 222 228 240 224 231 241 234 243 247 252 256 258 259
246 245 237 236 241 248 247 241 240 235 232 227 224 222 220 219 219 218 215 215 218 219 222 225 231 234 234 227 225 230 232 237 258 239 226 245 241 248 254 249 250 254 257
255 254 246 239 243 250 245 245 237 234 233 233 229 225 222 221 216 215 215 216 222 227 225 227 235 237 234 231 226 222 221 222 240 234 226 245 255 265 261 251 247 248 255
253 257 254 246 247 251 242 246 244 236 234 233 230 227 223 224 219 215 214 213 220 222 217 219 225 226 225 221 221 223 223 223 235 237 213 224 243 253 264 253 251 252 253